Location: St. Louis
(38.6270°N, 90.1994°W)
Time: 20:42:33
(UTC-06:00)

Altair - Pass Details

Date: 09 December 2021
Orbit: 1501 x 1683 km, 47.2° (Epoch: 26 January)

Event Time Altitude Azimuth Distance (km) Brightness Sun altitude
Rises 17:13:50 0° 284° (WNW) 4,757 11.0 -6.8°
Reaches altitude 10° 17:17:06 10° 290° (WNW) 3,748 10.3 -7.4°
Maximum altitude 17:26:14 51° 5° (N) 1,856 7.8 -9.1°
Enters shadow 17:34:38 12° 79° (ENE) 3,506 8.7 -10.6°
